Weather reports worldwide

Advertisment
Cap-de-la Heve, France (7028): temperature & dewpoint: 08.07.2020 10:00:00 - 14.07.2020 10:00:00 (CEST)Cap-de-la Heve, France (7028): temperature 5cm: 08.07.2020 10:00:00 - 14.07.2020 10:00:00 (CEST)Cap-de-la Heve, France (7028): wind speed & gusts: 08.07.2020 10:00:00 - 14.07.2020 10:00:00 (CEST)Cap-de-la Heve, France (7028): wind direction: 08.07.2020 10:00:00 - 14.07.2020 10:00:00 (CEST)Cap-de-la Heve, France (7028): reduced air pressure: 08.07.2020 10:00:00 - 14.07.2020 10:00:00 (CEST)Cap-de-la Heve, France (7028): visibility: 08.07.2020 10:00:00 - 14.07.2020 10:00:00 (CEST)Cap-de-la Heve, France (7028): precipitation: 08.07.2020 10:00:00 - 14.07.2020 10:00:00 (CEST)
Date & Time tt [°C] td [°C] tt 5cm [°C] ff [km/h] ff [kn] fx [km/h] fx [kn] dd ppp [hPa] vv [km] rr [mm]
14.07.2020 10:00:00 16,0 15,8 16,1 16 9 33 18 WNW 1017,9 - 0,0
14.07.2020 09:00:00 16,0 15,7 15,9 17 9 35 19 WNW 1017,9 - 0,0
14.07.2020 08:00:00 15,9 15,9 15,2 22 12 38 21 W 1017,8 - 0,2
14.07.2020 07:00:00 15,2 15,0 14,6 16 9 35 19 WSW 1018,2 - 1,8
14.07.2020 06:00:00 14,8 14,2 14,2 13 7 33 18 WSW 1018,4 - 1,4
14.07.2020 05:00:00 15,6 12,7 14,1 14 8 34 18 WSW 1018,7 20 0,0
14.07.2020 04:00:00 16,5 11,6 15,7 15 8 29 16 SW 1019,3 - 0,0
14.07.2020 03:00:00 16,5 13,0 15,9 14 7 21 11 W 1019,9 - 0,0
14.07.2020 02:00:00 16,4 11,5 15,9 6 4 19 10 WNW 1020,6 20 0,0
14.07.2020 01:00:00 16,6 11,1 15,7 10 5 17 9 NW 1021,1 - 0,0
14.07.2020 00:00:00 16,4 10,7 15,7 6 3 16 8 NNW 1021,5 - 0,0
13.07.2020 23:00:00 16,6 11,1 16,0 9 5 21 11 N 1021,9 20 0,0
13.07.2020 22:00:00 17,1 12,0 16,4 9 5 18 10 N 1022,1 - 0,0
13.07.2020 21:00:00 17,7 11,3 18,1 10 6 19 10 NNW 1022,2 - 0,0
13.07.2020 20:00:00 18,5 11,8 20,9 12 7 19 10 NNW 1022,6 - 0,0
13.07.2020 19:00:00 18,8 10,9 24,2 14 8 20 11 NNW 1022,8 - 0,0
13.07.2020 18:00:00 19,0 11,6 22,5 10 5 23 13 N 1023,2 - 0,0
13.07.2020 17:00:00 19,4 11,7 25,6 10 5 23 12 N 1023,7 20 0,0
13.07.2020 16:00:00 19,0 11,6 26,5 17 9 28 15 NNW 1024,2 - 0,0
13.07.2020 15:00:00 18,6 10,9 25,9 17 9 27 15 NNW 1024,5 - 0,0
13.07.2020 14:00:00 18,5 12,5 24,1 17 9 26 14 NNW 1025,1 30 0,0
13.07.2020 13:00:00 18,2 13,1 23,6 14 8 28 15 NNW 1025,3 - 0,0
13.07.2020 12:00:00 18,1 13,0 24,0 16 9 24 13 NNW 1025,6 - 0,0
13.07.2020 11:00:00 19,2 11,0 24,2 12 6 20 11 N 1025,7 - 0,0
13.07.2020 10:00:00 18,9 11,5 22,0 9 5 16 8 N 1025,9 - 0,0
13.07.2020 09:00:00 17,9 12,8 18,5 9 5 17 9 NNE 1025,8 - 0,0
13.07.2020 08:00:00 16,1 13,6 15,5 11 6 17 9 NNE 1025,8 30 0,0
13.07.2020 07:00:00 14,6 13,5 13,7 10 6 18 10 NNE 1025,7 - 0,0
13.07.2020 06:00:00 14,4 12,9 13,4 11 6 18 10 NNE 1025,5 - 0,0
13.07.2020 05:00:00 14,3 9,7 12,7 5 3 16 9 N 1025,6 30 0,0
13.07.2020 04:00:00 14,4 10,2 12,9 7 4 23 12 NE 1026,1 - 0,0
13.07.2020 03:00:00 15,6 10,1 14,2 16 8 31 17 NE 1026,1 - 0,0
13.07.2020 02:00:00 15,3 10,3 14,5 11 6 27 14 NE 1026,4 30 0,0
13.07.2020 01:00:00 15,7 9,6 15,2 16 9 34 18 NE 1026,4 - 0,0
13.07.2020 00:00:00 16,0 8,7 15,3 18 10 34 18 NE 1026,4 - 0,0
12.07.2020 23:00:00 15,8 9,0 15,3 20 11 29 16 NNE 1026,3 - 0,0
12.07.2020 22:00:00 16,4 8,9 16,0 14 8 43 23 NNE 1026,0 - 0,0
12.07.2020 21:00:00 17,8 8,6 17,7 18 10 37 20 NE 1026,0 - 0,0
12.07.2020 20:00:00 18,7 9,2 20,0 21 11 37 20 NNE 1025,9 25 0,0
12.07.2020 19:00:00 19,2 10,5 21,4 14 8 37 20 NNE 1026,1 - 0,0
12.07.2020 18:00:00 19,1 10,6 21,4 18 10 37 20 N 1026,3 - 0,0
12.07.2020 17:00:00 18,0 10,4 20,5 21 11 42 23 N 1026,7 25 0,0
12.07.2020 16:00:00 18,2 10,1 21,9 21 11 44 24 N 1027,3 - 0,0
12.07.2020 15:00:00 19,0 10,3 23,0 21 11 48 26 N 1027,0 - 0,0
12.07.2020 14:00:00 18,6 9,9 20,1 21 12 41 22 N 1027,4 - 0,0
12.07.2020 13:00:00 18,8 9,8 22,4 16 9 39 21 N 1027,8 - 0,0
12.07.2020 12:00:00 18,7 7,8 20,9 15 8 27 15 NNW 1028,1 - 0,0
12.07.2020 11:00:00 18,9 7,6 21,6 6 3 22 12 SSE 1028,6 25 0,0
12.07.2020 10:00:00 17,4 8,3 19,0 11 6 26 14 ENE 1028,6 - 0,0
12.07.2020 09:00:00 15,9 8,6 16,7 13 7 23 13 ENE 1028,5 - 0,0
12.07.2020 08:00:00 14,6 9,6 14,0 13 7 21 11 ENE 1028,1 - 0,0
12.07.2020 07:00:00 13,4 11,1 12,4 13 7 22 12 ENE 1027,9 - 0,0
12.07.2020 06:00:00 13,1 10,8 12,0 14 8 21 12 NE 1027,7 - 0,0
12.07.2020 05:00:00 12,6 10,1 12,0 12 7 19 10 NE 1027,5 - 0,0
12.07.2020 04:00:00 12,9 9,9 12,1 12 7 22 12 NNE 1027,6 - 0,0
12.07.2020 03:00:00 13,3 9,9 12,4 11 6 18 10 NNE 1027,7 - 0,0
12.07.2020 02:00:00 13,2 10,2 12,5 10 6 19 10 NNE 1027,8 30 0,0
12.07.2020 01:00:00 13,5 10,5 12,7 10 5 19 10 NNE 1028,2 - 0,0
12.07.2020 00:00:00 13,4 10,2 12,8 13 7 20 11 NNE 1028,2 - 0,0
11.07.2020 23:00:00 13,9 10,3 13,1 9 5 16 8 NNE 1028,3 - 0,0
11.07.2020 22:00:00 14,9 9,9 14,2 8 4 20 11 NNE 1027,9 - 0,0
11.07.2020 21:00:00 16,2 9,6 16,3 9 5 22 12 N 1027,6 - 0,0
11.07.2020 20:00:00 16,9 9,1 19,6 11 6 23 13 N 1027,5 - 0,0
11.07.2020 19:00:00 17,3 9,5 22,1 11 6 25 13 NNW 1027,5 - 0,0
11.07.2020 18:00:00 17,0 9,2 23,2 13 7 29 15 NNW 1027,6 - 0,0
11.07.2020 17:00:00 17,2 8,1 21,7 17 9 30 16 N 1027,5 30 0,0
11.07.2020 16:00:00 17,3 8,4 24,4 15 8 31 17 NNW 1027,8 - 0,0
11.07.2020 15:00:00 17,0 8,7 24,1 16 9 28 15 N 1027,9 - 0,0
11.07.2020 14:00:00 16,9 8,6 23,0 16 8 27 14 N 1027,8 30 0,0
11.07.2020 13:00:00 16,4 10,3 21,9 16 9 30 16 N 1027,7 - 0,0
11.07.2020 12:00:00 16,8 10,2 21,8 15 8 28 15 N 1027,3 - 0,0
11.07.2020 11:00:00 16,2 9,8 20,1 16 9 36 19 N 1027,0 - 0,0
11.07.2020 10:00:00 16,1 10,4 19,0 14 8 27 15 N 1026,8 - 0,0
11.07.2020 09:00:00 15,7 10,2 18,2 13 7 24 13 N 1026,1 - 0,0
11.07.2020 08:00:00 15,6 10,4 15,3 8 5 23 12 NE 1025,6 30 0,0
11.07.2020 07:00:00 14,1 9,9 13,4 9 5 23 12 NNE 1025,1 - 0,0
11.07.2020 06:00:00 14,2 9,4 13,4 10 5 22 12 NNE 1024,6 - 0,0
11.07.2020 05:00:00 14,9 9,7 14,1 11 6 25 13 N 1024,2 30 0,0
11.07.2020 04:00:00 15,3 9,4 13,8 9 5 23 12 N 1024,0 - 0,0
11.07.2020 03:00:00 15,0 11,9 13,8 10 5 23 12 N 1024,0 - 0,0
11.07.2020 02:00:00 15,0 10,8 13,7 10 5 28 15 NNW 1023,9 30 0,0
11.07.2020 01:00:00 15,0 10,6 13,7 12 6 30 16 NNW 1023,7 - 0,0
11.07.2020 00:00:00 15,0 10,6 13,8 11 6 26 14 NNW 1023,2 - 0,0
10.07.2020 23:00:00 15,1 10,5 14,1 13 7 30 16 NNW 1022,6 30 0,0
10.07.2020 22:00:00 15,3 10,5 14,4 14 8 33 18 NNW 1022,2 - 0,0
10.07.2020 21:00:00 16,0 9,6 16,3 15 8 32 17 NNW 1021,9 - 0,0
10.07.2020 20:00:00 16,7 9,4 19,6 16 9 36 19 NNW 1021,6 - 0,0
10.07.2020 19:00:00 17,1 9,8 22,1 15 8 30 16 NNW 1021,1 - 0,0
10.07.2020 18:00:00 17,2 9,6 22,6 16 9 30 16 NNW 1020,9 - 0,0
10.07.2020 17:00:00 17,5 11,1 24,0 13 7 30 16 NW 1020,8 20 0,0
10.07.2020 16:00:00 17,3 11,8 24,2 16 8 31 17 NNW 1020,7 - 0,0
10.07.2020 15:00:00 17,1 12,0 20,5 16 8 27 15 NNW 1020,4 - 0,0
10.07.2020 14:00:00 16,8 11,7 20,9 14 8 29 15 NNW 1019,9 - 0,0
10.07.2020 13:00:00 16,2 10,9 19,9 16 9 29 16 NNW 1019,5 - 0,0
10.07.2020 12:00:00 16,1 11,9 17,3 13 7 33 18 NNW 1018,8 - 0,0
10.07.2020 11:00:00 15,6 11,4 16,4 16 9 36 19 NNW 1018,0 35 0,0
10.07.2020 10:00:00 14,8 10,6 14,2 17 9 43 23 NNW 1017,3 - 0,0
10.07.2020 09:00:00 14,6 11,9 14,0 19 10 36 19 NNW 1016,4 - 0,0
10.07.2020 08:00:00 14,4 13,1 14,0 21 11 39 21 NNW 1015,6 - 0,8
10.07.2020 07:00:00 15,0 14,5 14,8 16 9 42 23 NW 1014,5 - 0,0
10.07.2020 06:00:00 15,2 14,2 14,6 22 12 38 20 WNW 1014,1 - 0,0
10.07.2020 05:00:00 14,9 14,1 14,3 15 8 49 27 WNW 1014,0 10 0,0
10.07.2020 04:00:00 15,5 15,2 15,1 33 18 53 29 W 1014,0 - 0,0
10.07.2020 03:00:00 15,9 14,8 15,9 37 20 53 29 W 1013,9 - 0,0
10.07.2020 02:00:00 16,0 14,4 16,1 36 19 50 27 W 1014,0 20 0,0
10.07.2020 01:00:00 16,2 14,2 16,1 34 18 49 26 W 1014,0 - 0,0
10.07.2020 00:00:00 16,4 14,2 16,4 21 11 51 28 W 1014,4 - 0,0
09.07.2020 23:00:00 17,0 14,6 17,0 31 17 52 28 W 1014,0 - 0,0
09.07.2020 22:00:00 17,7 15,5 17,6 22 12 46 25 W 1013,3 - 0,0
09.07.2020 21:00:00 17,9 15,7 18,2 16 8 34 18 WNW 1013,6 - 0,0
09.07.2020 20:00:00 17,8 15,6 18,5 16 8 32 17 NNW 1013,7 - 0,0
09.07.2020 19:00:00 19,0 15,9 22,6 20 11 34 19 NNW 1013,4 - 0,0
09.07.2020 18:00:00 19,6 15,7 24,5 18 10 29 16 NNW 1013,8 - 0,0
09.07.2020 17:00:00 19,9 15,9 22,4 14 7 33 18 NNW 1014,3 20 0,0
09.07.2020 16:00:00 20,0 15,8 23,2 18 10 33 18 WNW 1014,8 - 0,0
09.07.2020 15:00:00 20,2 15,6 23,5 13 7 28 15 WNW 1015,1 - 0,0
09.07.2020 14:00:00 20,8 15,6 23,3 9 5 17 9 W 1015,4 - 0,0
09.07.2020 13:00:00 20,2 15,8 23,2 10 6 18 10 W 1015,9 - 0,0
09.07.2020 12:00:00 19,7 14,9 22,7 11 6 21 11 SW 1016,1 - 0,0
09.07.2020 11:00:00 18,9 15,4 21,3 9 5 22 12 SSW 1016,3 30 0,0
09.07.2020 10:00:00 17,6 15,0 17,5 9 5 27 15 SSW 1016,3 - 0,0
09.07.2020 09:00:00 16,4 14,9 16,6 12 7 29 16 SW 1016,3 - 0,0
09.07.2020 08:00:00 16,0 14,7 15,7 13 7 34 18 SW 1016,2 20 0,0
09.07.2020 07:00:00 15,6 14,5 15,5 13 7 35 19 SW 1016,2 - 0,0
09.07.2020 06:00:00 15,9 14,9 15,7 17 9 35 19 WSW 1016,5 - 0,0
09.07.2020 05:00:00 15,9 15,1 15,8 23 12 42 23 WSW 1017,0 20 0,0
09.07.2020 04:00:00 15,9 14,9 16,0 20 11 44 24 WSW 1017,1 - 0,0
09.07.2020 03:00:00 16,2 15,6 16,2 18 10 32 17 WSW 1017,5 - 0,0
09.07.2020 02:00:00 16,3 15,5 16,3 20 11 34 19 W 1017,7 20 0,0
09.07.2020 01:00:00 16,6 15,6 16,6 23 13 33 18 W 1017,9 - 0,0
09.07.2020 00:00:00 16,6 15,5 16,6 19 10 30 16 W 1017,8 - 0,0
08.07.2020 23:00:00 16,8 15,7 16,8 16 9 28 15 W 1018,1 20 0,0
08.07.2020 22:00:00 17,1 16,0 17,2 12 6 28 15 W 1018,2 - 0,0
08.07.2020 21:00:00 17,8 15,8 18,2 24 13 38 20 W 1018,1 - 0,0
08.07.2020 20:00:00 17,9 16,1 18,4 20 11 34 18 WSW 1018,1 20 0,0
08.07.2020 19:00:00 18,3 16,1 19,4 25 14 42 23 W 1018,3 - 0,0
08.07.2020 18:00:00 18,9 16,1 21,0 31 17 42 23 W 1018,4 - 0,0
08.07.2020 17:00:00 18,8 16,0 19,7 24 13 43 23 WSW 1018,7 20 0,0
08.07.2020 16:00:00 18,2 15,8 20,1 29 16 43 23 W 1018,7 - 0,0
08.07.2020 15:00:00 18,4 16,0 18,5 26 14 48 26 WSW 1018,8 - 0,0
08.07.2020 14:00:00 17,5 15,8 18,7 34 18 49 27 W 1018,6 14 0,0
08.07.2020 13:00:00 17,6 15,6 18,6 35 19 50 27 W 1018,5 - 0,0
08.07.2020 12:00:00 17,2 15,4 17,4 23 12 45 25 WSW 1018,4 - 0,0
08.07.2020 11:00:00 16,5 14,5 16,5 19 10 47 26 WSW 1018,1 14 0,0
08.07.2020 10:00:00 15,9 13,9 15,9 26 14 48 26 WSW 1018,0 - 0,0

tt = temperature
td = dewpoint
tt 5cm = temperature 5cm
ff = wind speed
fx = gusts
dd = wind direction
ppp = reduced air pressure
vv = visibility
rr = precipitation

Next stations